Change the Weather History Date:

Monday, April 14, 2014

  Actual Average Record
Temperature  
Mean Temperature 44 °F -  
Max Temperature 59 °F 0 °F 84 °F (2003)
Min Temperature 30 °F - 29 °F (2008)
Degree Days  
Heating Degree Days 20    
Moisture  
Dew Point 36 °F    
Average Humidity 90    
Maximum Humidity 100    
Minimum Humidity 79    
Precipitation  
Precipitation 0.02 in - - ()
Sea Level Pressure  
Sea Level Pressure 29.79 in    
Wind  
Wind Speed 20 mph (NW)    
Max Wind Speed 28 mph    
Max Gust Speed 34 mph    
Visibility 6 miles    
Events Rain , Snow    
Averages and records for this station are not official NWS values.
T = Trace of Precipitation, MM = Missing Value Source: NWS Daily Summary

Daily Weather History Graph

Daily Weather History Graph

Search for Another Location

Airport or City:

Trip Planner

Search our weather history database for the weather conditions in past years. The results will help you decide how hot, cold, wet, or windy it might be!

Date:

Astronomy

Apr. 14, 2014 Rise Set
Actual Time 6:18 AM CDT 7:33 PM CDT
Civil Twilight 5:50 AM CDT 8:02 PM CDT
Nautical Twilight 5:16 AM CDT 8:35 PM CDT
Astronomical Twilight 4:41 AM CDT 9:11 PM CDT
Moon 7:12 PM CDT (4/14) 5:50 AM CDT (4/14)
Length of Visible Light 14h 11m
Length of Day
13h 15m
Full, 100% of the Moon is Illuminated
Apr 14
Full
Apr 15
Full
Apr 22
Last Quarter
Apr 29
New
May 6
First Quarter

Hourly Weather History & Observations

Time (CDT) Temp. Windchill Dew Point Humidity Pressure Visibility Wind Dir Wind Speed Gust Speed Precip Events Conditions
12:56 AM 59.9 °F - 56.8 °F 90% 29.41 in 10.0 mi South 24.2 mph 32.2 mph 0.00 in   Mostly Cloudy
1:56 AM 57.9 °F - 52.9 °F 83% 29.47 in 10.0 mi WSW 24.2 mph 33.4 mph N/A   Mostly Cloudy
2:47 AM 55.4 °F - 51.8 °F 88% 29.49 in 10.0 mi WSW 24.2 mph 31.1 mph 0.00 in Rain Light Rain
2:56 AM 54.0 °F - 50.9 °F 89% 29.48 in 7.0 mi WSW 19.6 mph 27.6 mph 0.00 in Rain Light Rain
3:17 AM 53.6 °F - 48.2 °F 82% 29.49 in 10.0 mi WSW 27.6 mph 34.5 mph 0.00 in   Overcast
3:48 AM 50.0 °F - 46.4 °F 87% 29.51 in 10.0 mi WSW 23.0 mph 31.1 mph 0.00 in   Overcast
3:56 AM 48.9 °F - 45.0 °F 86% 29.51 in 10.0 mi WSW 21.9 mph 32.2 mph 0.00 in   Overcast
4:08 AM 48.2 °F - 44.6 °F 87% 29.53 in 10.0 mi WSW 21.9 mph 29.9 mph N/A   Overcast
4:56 AM 46.9 °F - 43.9 °F 89% 29.59 in 10.0 mi West 15.0 mph - N/A   Overcast
5:21 AM 46.4 °F 38.7 °F 42.8 °F 87% 29.60 in 10.0 mi WNW 20.7 mph 28.8 mph N/A   Overcast
5:56 AM 43.9 °F 36.2 °F 39.9 °F 86% 29.62 in 10.0 mi NW 17.3 mph - N/A   Overcast
6:40 AM 42.8 °F 34.5 °F 37.4 °F 81% 29.65 in 10.0 mi NNW 18.4 mph 27.6 mph N/A   Overcast
6:56 AM 41.9 °F 35.0 °F 36.9 °F 82% 29.67 in 10.0 mi NNW 12.7 mph - N/A   Overcast
7:27 AM 41.0 °F 33.5 °F 37.4 °F 87% 29.69 in 1.8 mi NNW 13.8 mph - 0.00 in Rain Light Rain
7:29 AM 41.0 °F 32.8 °F 37.4 °F 87% 29.69 in 1.5 mi NNW 16.1 mph - 0.00 in Rain Light Rain
7:56 AM 38.8 °F 29.1 °F 36.9 °F 93% 29.72 in 1.0 mi North 19.6 mph - 0.00 in Rain Light Rain
8:16 AM 39.2 °F 30.5 °F 37.4 °F 93% 29.72 in 4.0 mi NNW 16.1 mph 27.6 mph 0.01 in Rain Light Rain
8:56 AM 37.9 °F 27.1 °F 34.9 °F 89% 29.75 in 10.0 mi NNW 23.0 mph 28.8 mph 0.01 in   Overcast
9:28 AM 39.2 °F 29.6 °F 35.6 °F 87% 29.77 in 10.0 mi North 19.6 mph 25.3 mph N/A   Overcast
9:56 AM 38.8 °F 29.7 °F 34.0 °F 83% 29.80 in 10.0 mi North 17.3 mph - N/A   Overcast
10:08 AM 39.2 °F 30.2 °F 33.8 °F 81% 29.81 in 10.0 mi North 17.3 mph - N/A   Overcast
10:56 AM 38.8 °F 29.1 °F 32.9 °F 79% 29.84 in 10.0 mi North 19.6 mph - N/A   Overcast
11:56 AM 38.8 °F 29.4 °F 34.9 °F 86% 29.84 in 6.0 mi North 18.4 mph - 0.00 in Rain Light Rain
12:10 PM 37.4 °F 27.8 °F 35.6 °F 93% 29.84 in 4.0 mi North 17.3 mph - 0.00 in Rain Light Rain
12:56 PM 37.9 °F 28.5 °F 34.9 °F 89% 29.86 in 4.0 mi North 17.3 mph - 0.00 in Rain Light Rain
1:04 PM 37.4 °F 27.5 °F 35.6 °F 93% 29.84 in 4.0 mi North 18.4 mph - 0.00 in Rain Light Rain
1:56 PM 38.8 °F 29.4 °F 34.0 °F 83% 29.87 in 7.0 mi North 18.4 mph - 0.00 in   Overcast
2:14 PM 37.4 °F 27.8 °F 33.8 °F 87% 29.86 in 2.5 mi NNW 17.3 mph - 0.00 in Rain Light Rain
2:38 PM 37.4 °F 27.5 °F 33.8 °F 87% 29.88 in 1.5 mi NNW 18.4 mph 24.2 mph 0.00 in Rain Light Rain
2:56 PM 36.0 °F 25.3 °F 34.0 °F 93% 29.89 in 1.0 mi NNW 19.6 mph - 0.00 in Rain Light Rain
3:37 PM 35.6 °F 24.2 °F 33.8 °F 93% 29.88 in 1.8 mi NNW 21.9 mph - 0.00 in Rain Light Rain
3:49 PM 35.6 °F 25.9 °F 33.8 °F 93% 29.88 in 3.0 mi NNW 16.1 mph - 0.00 in Rain Light Rain
3:56 PM 36.0 °F 25.6 °F 32.9 °F 89% 29.90 in 2.0 mi NNW 18.4 mph 25.3 mph 0.00 in Rain Light Rain
4:56 PM 32.9 °F 21.3 °F 31.1 °F 93% 29.94 in 1.5 mi NNW 19.6 mph 27.6 mph 0.00 in Rain Light Rain
5:06 PM 32.0 °F 20.8 °F 30.2 °F 93% 29.92 in 2.0 mi NNW 17.3 mph - 0.00 in Rain Light Rain
5:56 PM 31.1 °F 19.7 °F 30.0 °F 96% 29.98 in 1.0 mi NNW 17.3 mph - 0.00 in Rain Light Freezing Rain
6:05 PM 30.2 °F 19.3 °F 30.2 °F 100% 29.95 in 1.2 mi NNW 15.0 mph - 0.00 in Snow Light Snow
6:12 PM 30.2 °F 20.2 °F 30.2 °F 100% 29.95 in 1.5 mi NW 12.7 mph - 0.01 in Snow Light Snow
6:28 PM 30.2 °F 18.9 °F 30.2 °F 100% 29.95 in 2.0 mi NNW 16.1 mph - 0.01 in Snow Light Snow
6:45 PM 30.2 °F 19.3 °F 30.2 °F 100% 29.96 in 1.2 mi NNW 15.0 mph - 0.01 in Snow Light Snow
6:56 PM 31.1 °F 20.9 °F 30.0 °F 96% 30.01 in 1.5 mi NNW 13.8 mph - 0.01 in Snow Light Snow
7:56 PM 31.1 °F 19.7 °F 29.1 °F 92% 30.01 in 2.0 mi NNW 17.3 mph - 0.00 in Snow Light Snow
7:58 PM 30.2 °F 18.9 °F 28.4 °F 93% 29.97 in 1.8 mi NNW 16.1 mph - 0.00 in Snow Light Snow
8:30 PM 30.2 °F 18.9 °F 28.4 °F 93% 29.98 in 2.5 mi North 16.1 mph - 0.00 in Snow Light Snow
8:56 PM 30.0 °F 17.5 °F 29.1 °F 96% 30.04 in 2.5 mi NNW 19.6 mph 24.2 mph 0.00 in Snow Light Snow
9:02 PM 30.2 °F 18.5 °F 28.4 °F 93% 29.99 in 5.0 mi NNW 17.3 mph - 0.00 in Snow Light Snow
9:11 PM 30.2 °F 18.1 °F 28.4 °F 93% 29.99 in 10.0 mi NNW 18.4 mph - 0.00 in Snow Light Snow
9:56 PM 30.0 °F 18.7 °F 27.1 °F 89% 30.05 in 10.0 mi NNW 16.1 mph - 0.00 in   Overcast